Weather History for KLEX - August, 2013

Change the Weather History Date:

Thursday, August 22, 2013

  Actual Average Record
Temperature  
Mean Temperature 78 °F 75 °F  
Max Temperature 87 °F 86 °F 104 °F (1936)
Min Temperature 69 °F 65 °F 49 °F (1950)
Degree Days  
Heating Degree Days 0 0  
Month to date heating degree days 3 0  
Since 1 June heating degree days 3 11  
Since 1 July heating degree days 3 0  
Cooling Degree Days 13 10  
Month to date cooling degree days 196 237  
Year to date cooling degree days 919 933  
Since 1 June cooling degree days 766 826  
Growing Degree Days 28 (Base 50)    
Moisture  
Dew Point 69 °F    
Average Humidity 75    
Maximum Humidity 97    
Minimum Humidity 53    
Precipitation  
Precipitation T in 0.10 in 2.18 in (1900)
Month to date precipitation 3.00 2.41  
Year to date precipitation 41.50 30.83  
Snow  
Snow 0.00 in 0.00 in - ()
Month to date snowfall 0.0 0.0  
Since 1 June snowfall 0.0 0.0  
Since 1 July snowfall 0.0 0.0  
Snow Depth 0.00 in    
Sea Level Pressure  
Sea Level Pressure 30.10 in    
Wind  
Wind Speed 5 mph (WSW)    
Max Wind Speed 15 mph    
Max Gust Speed 18 mph    
Visibility 7 miles    
Events Fog , Rain , Thunderstorm    
T = Trace of Precipitation, MM = Missing Value Source: NWS Daily Summary

Daily Weather History Graph

Daily Weather History Graph

Search for Another Location

Airport or City:

Trip Planner

Search our weather history database for the weather conditions in past years. The results will help you decide how hot, cold, wet, or windy it might be!

Date:

Astronomy

Aug. 22, 2013 Rise Set
Actual Time 6:59 AM EDT 8:21 PM EDT
Civil Twilight 6:32 AM EDT 8:49 PM EDT
Nautical Twilight 5:59 AM EDT 9:22 PM EDT
Astronomical Twilight 5:24 AM EDT 9:56 PM EDT
Moon 9:08 PM EDT 8:44 AM EDT
Length of Visible Light 14h 17m
Length of Day
13h 22m
Waning Gibbous, 97% of the Moon is Illuminated
Aug 22
Waning Gibbous
Aug 28
Last Quarter
Sep 5
New
Sep 12
First Quarter
Sep 19
Full

Hourly Weather History & Observations

Time (EDT) Temp. Heat Index Dew Point Humidity Pressure Visibility Wind Dir Wind Speed Gust Speed Precip Events Conditions
12:54 AM 69.1 °F - 66.0 °F 90% 30.13 in 10.0 mi South 6.9 mph - N/A   Clear
1:54 AM 69.1 °F - 66.9 °F 93% 30.13 in 10.0 mi South 5.8 mph - N/A   Clear
2:54 AM 71.1 °F - 68.0 °F 90% 30.11 in 10.0 mi South 5.8 mph - N/A   Clear
3:54 AM 70.0 °F - 68.0 °F 93% 30.11 in 10.0 mi SSW 5.8 mph - N/A   Clear
4:54 AM 69.1 °F - 68.0 °F 96% 30.12 in 9.0 mi SSW 5.8 mph - N/A   Clear
5:54 AM 70.0 °F - 68.0 °F 93% 30.11 in 7.0 mi SW 6.9 mph - N/A   Clear
6:34 AM 70.0 °F - 68.0 °F 93% 30.14 in 5.0 mi SW 4.6 mph - N/A   Partly Cloudy
6:54 AM 70.0 °F - 68.0 °F 93% 30.12 in 4.0 mi SW 5.8 mph - N/A   Scattered Clouds
7:08 AM 69.1 °F - 68.0 °F 96% 30.15 in 2.0 mi SSW 5.8 mph - N/A   Mostly Cloudy
7:38 AM 70.0 °F - 69.1 °F 97% 30.16 in 1.0 mi WSW 4.6 mph - N/A   Overcast
7:45 AM 70.0 °F - 69.1 °F 97% 30.16 in 0.8 mi WSW 5.8 mph - N/A   Mist
7:54 AM 71.1 °F - 70.0 °F 96% 30.14 in 0.5 mi WSW 4.6 mph - N/A Fog Fog
8:08 AM 71.1 °F - 70.0 °F 96% 30.16 in 1.2 mi WSW 5.8 mph - N/A   Overcast
8:26 AM 72.0 °F - 70.0 °F 93% 30.16 in 0.8 mi WSW 5.8 mph - N/A   Overcast
8:54 AM 73.0 °F - 71.1 °F 93% 30.13 in 0.8 mi WSW 5.8 mph - N/A   Overcast
9:01 AM 73.0 °F - 71.1 °F 93% 30.15 in 1.0 mi WSW 6.9 mph - N/A   Overcast
9:26 AM 73.9 °F - 72.0 °F 93% 30.15 in 2.0 mi WSW 8.1 mph - N/A   Overcast
9:54 AM 75.9 °F - 72.0 °F 87% 30.13 in 6.0 mi WSW 6.9 mph - N/A   Mostly Cloudy
10:10 AM 77.0 °F - 72.0 °F 84% 30.15 in 8.0 mi WSW 6.9 mph - N/A   Scattered Clouds
10:54 AM 80.1 °F 84.2 °F 73.0 °F 79% 30.12 in 10.0 mi SW 4.6 mph - N/A   Unknown
11:54 AM 82.9 °F 88.0 °F 72.0 °F 69% 30.13 in 10.0 mi West 4.6 mph - N/A   Scattered Clouds
12:54 PM 84.9 °F 89.4 °F 70.0 °F 61% 30.12 in 10.0 mi Variable 5.8 mph - N/A   Scattered Clouds
1:54 PM 84.9 °F 88.8 °F 69.1 °F 59% 30.10 in 10.0 mi West 6.9 mph - N/A   Scattered Clouds
2:54 PM 84.0 °F 87.8 °F 69.1 °F 61% 30.08 in 10.0 mi WNW 6.9 mph - N/A   Overcast
3:21 PM 87.1 °F 89.9 °F 66.9 °F 51% 30.11 in 10.0 mi West 6.9 mph - N/A Thunderstorm Scattered Clouds
3:40 PM 87.1 °F 89.2 °F 66.0 °F 49% 30.10 in 10.0 mi West 11.5 mph - N/A   Scattered Clouds
3:54 PM 87.1 °F 90.6 °F 68.0 °F 53% 30.06 in 10.0 mi NW 9.2 mph - N/A   Partly Cloudy
4:54 PM 86.0 °F 89.4 °F 68.0 °F 55% 30.04 in 10.0 mi West 8.1 mph - N/A   Clear
5:54 PM 82.0 °F 84.5 °F 66.9 °F 60% 30.04 in 10.0 mi NNE 6.9 mph - N/A   Mostly Cloudy
6:54 PM 82.0 °F 85.5 °F 69.1 °F 65% 30.03 in 10.0 mi South 3.5 mph - N/A   Scattered Clouds
7:54 PM 81.0 °F 84.1 °F 69.1 °F 67% 30.04 in 10.0 mi Calm Calm - N/A   Clear
8:19 PM 81.0 °F 84.4 °F 70.0 °F 69% 30.07 in 10.0 mi South 3.5 mph - N/A Thunderstorm Partly Cloudy
8:35 PM 81.0 °F 84.1 °F 69.1 °F 67% 30.07 in 10.0 mi Calm Calm - N/A   Partly Cloudy
8:54 PM 77.0 °F - 70.0 °F 79% 30.05 in 8.0 mi WNW 4.6 mph - 0.00 in Rain Light Rain
9:54 PM 75.9 °F - 70.0 °F 82% 30.04 in 10.0 mi East 4.6 mph - 0.00 in   Partly Cloudy
10:54 PM 73.9 °F - 70.0 °F 87% 30.04 in 7.0 mi Calm Calm - N/A   Clear
11:54 PM 73.0 °F - 70.0 °F 90% 30.04 in 6.0 mi SW 3.5 mph - N/A   Clear